User: anonymous   Login
Location: Unspecified
(0.0000°N, 0.0000°E)
Time: 05:53:24
(UTC+00:00)
Language:

DMSP F15 (USA 147) - Orbit

View from above orbital plane
View from above orbital plane
View from above satellite
View from above satellite

Ground track
Ground track

The orbit data is extracted from the following two-line orbital elements,

1 25991U 99067A   22225.90947062  .00000068  00000-0  57032-4 0  9992
2 25991  99.0557 218.4749 0010729  31.1065  79.2696 14.16560467171900
Epoch (UTC): 13 August 2022 21:49:38
Eccentricity: 0.0010729
inclination: 99.0557°
perigee height: 829 km
apogee height: 845 km
right ascension of ascending node: 218.4749°
argument of perigee: 31.1065°
revolutions per day: 14.16560467
mean anomaly at epoch: 79.2696°
orbit number at epoch: 17190

The dashed part of the orbit path shows where the satellite is in the earth's shadow,  

DLR